Wind_Speed
31 32 33 33 32 32 32 30 30 30 28 28 27 26 24 23 22 21 20 18 16 15 14 12 11 10 9 9 9 9 9 10 10 11 11 12 12 11 12 12 12 11 11
28 29 31 33 33 33 33 32 31 31 30 28 28 28 26 25 24 23 22 21 19 17 16 15 13 12 11 11 10 10 10 10 11 11 11 11 11 12 11 12 13 12 12
26 27 29 32 33 33 33 32 32 32 32 31 29 28 28 27 26 25 24 23 21 20 19 17 16 15 14 13 12 12 11 11 11 11 11 11 11 11 11 12 13 13 12
24 26 27 29 31 33 32 32 33 33 33 32 30 30 29 28 28 27 26 25 24 22 21 20 18 17 16 15 14 13 13 12 12 12 12 12 11 11 11 11 12 13 12
21 23 25 27 29 31 32 32 33 34 33 34 32 31 30 29 29 29 28 27 26 24 23 22 21 19 18 17 16 15 14 14 14 13 13 13 12 12 11 11 12 12 12
18 19 21 24 27 29 30 31 32 33 34 34 34 33 32 31 31 30 30 28 27 26 25 24 23 22 21 20 19 17 17 16 15 15 14 14 14 13 13 12 12 13 13
16 17 18 20 23 26 28 30 31 32 33 35 34 34 33 33 32 32 31 31 29 29 28 26 26 25 23 23 22 20 19 18 17 17 16 15 15 15 14 14 14 14 14
14 14 15 16 18 21 25 27 29 30 32 33 34 34 33 33 32 32 31 32 32 30 30 29 27 27 26 25 24 23 22 21 20 19 18 17 17 17 16 16 15 15 15
12 12 12 14 15 18 21 24 27 29 30 32 34 35 34 33 33 33 33 33 34 33 32 31 29 28 28 27 26 26 25 23 23 22 21 20 20 19 18 18 17 17 17
12 11 10 11 13 14 17 20 23 26 27 29 32 34 35 35 34 33 34 33 34 34 33 32 31 30 30 29 28 28 27 26 26 25 24 23 22 21 21 20 20 19 19
12 10 9 9 10 12 14 17 20 23 25 27 29 32 33 35 35 34 33 33 34 34 33 33 34 33 31 31 30 30 29 28 28 27 26 25 24 23 23 22 22 21 21
12 10 9 7 8 10 12 15 17 20 23 25 27 29 31 32 34 35 34 33 33 34 34 33 34 33 33 33 32 31 31 29 29 29 28 28 27 26 25 25 24 23 23
13 11 9 7 6 8 10 13 15 17 20 23 26 28 29 30 30 32 33 33 33 33 33 32 33 34 34 34 34 32 31 31 30 30 30 30 29 28 28 27 26 26 25
15 12 10 8 6 6 7 10 12 14 17 19 22 24 26 28 28 29 31 32 32 33 33 33 34 34 35 36 35 34 35 33 33 33 32 31 31 30 30 29 28 28 28
17 14 12 9 7 6 6 7 10 12 14 17 20 22 24 25 27 29 29 30 31 33 33 33 34 35 35 36 36 36 35 35 34 34 34 33 32 32 31 30 30 30 30
19 16 14 11 8 7 6 5 6 9 12 15 17 19 21 23 25 27 28 29 29 31 31 32 32 34 34 35 35 36 36 37 37 36 35 35 34 33 33 32 32 31 30
20 18 16 13 11 8 6 6 5 6 8 12 15 18 20 22 23 25 26 27 29 29 29 30 31 32 32 33 34 34 35 36 37 36 35 35 35 34 34 34 33 33 32
20 19 17 15 13 11 8 6 5 4 5 7 11 14 17 19 21 23 25 27 28 29 29 30 31 31 32 32 33 34 34 36 35 36 37 37 36 35 34 34 34 33 33
20 19 18 17 15 12 9 8 6 4 4 5 7 9 12 15 18 20 22 25 26 28 29 29 30 32 32 31 32 32 33 34 35 35 36 36 36 36 36 35 35 34 33
20 19 18 18 16 14 11 9 8 6 4 3 4 6 9 12 15 18 19 22 24 25 27 28 29 30 31 31 32 32 32 33 34 35 36 35 35 36 35 35 34 34 34
21 19 18 17 17 15 13 11 9 8 6 4 3 4 6 9 12 14 16 18 21 23 25 26 26 28 29 29 30 31 31 33 33 33 35 35 35 35 34 34 34 33 33
21 20 19 18 16 16 14 12 10 9 7 5 4 4 4 6 9 11 13 16 18 20 22 23 24 25 26 28 29 30 30 31 31 31 33 33 34 34 34 34 33 33 33
21 20 19 18 16 15 14 13 11 10 9 8 6 4 4 4 6 8 11 13 15 17 19 20 21 22 23 25 27 28 30 30 30 30 32 33 33 33 33 33 33 33 32
20 20 19 18 17 15 14 13 12 11 10 9 8 6 5 4 5 7 9 11 12 15 17 18 19 21 22 23 24 26 27 29 30 31 31 32 32 32 32 32 31 32 31
20 20 19 18 17 15 14 14 13 12 11 10 9 7 6 5 5 6 8 9 11 13 14 16 17 19 21 22 23 24 25 26 28 28 29 29 30 31 31 30 31 31 31
20 19 19 18 17 16 14 13 13 12 11 11 10 8 7 7 7 6 7 8 10 11 13 14 16 18 19 21 22 23 24 26 26 27 28 29 29 30 30 30 31 31 31
Wind_Direction
258 255 252 251 248 247 246 246 243 240 241 240 240 240 239 237 234 233 233 232 230 229 228 228 228 227 223 216 209 204 199 195 193 193 194 195 196 199 202 204 204 203 204
260 257 253 249 246 245 244 244 243 240 240 239 240 238 235 234 233 231 230 230 230 228 228 228 227 226 224 220 215 210 205 201 200 200 201 202 203 205 206 207 208 210 213
262 258 254 249 245 244 242 241 241 240 240 239 238 235 233 233 231 229 229 229 229 228 228 228 227 226 225 222 219 217 213 209 208 207 206 207 209 212 212 212 213 215 220
266 262 257 250 245 242 241 238 238 236 237 237 237 235 234 233 231 228 228 228 228 228 227 227 226 226 225 224 222 220 218 216 215 214 212 212 215 217 218 218 218 221 225
271 268 262 252 245 241 239 237 236 235 236 236 236 234 233 232 231 228 227 229 228 227 227 226 226 225 225 226 225 223 221 220 221 220 220 220 221 221 222 223 225 227 231
277 272 265 254 246 241 238 236 235 235 235 234 233 233 232 232 232 230 227 228 229 228 227 227 226 225 225 226 226 226 224 224 225 224 225 226 227 227 228 228 231 234 237
285 280 269 257 248 241 238 236 235 234 234 232 230 232 231 231 232 231 229 229 229 228 226 226 226 226 226 227 227 228 228 227 228 228 229 230 230 231 233 234 237 239 242
295 287 275 261 251 245 240 237 235 235 234 233 230 230 229 230 231 230 229 229 228 227 225 226 227 228 227 228 229 230 231 231 231 232 233 234 234 235 237 240 242 244 246
306 291 278 265 254 247 241 237 235 234 234 233 231 230 230 230 230 230 230 230 228 227 228 228 228 229 229 230 231 232 232 233 233 234 235 236 237 238 240 242 245 247 249
317 302 284 271 259 249 242 238 235 234 233 233 231 230 231 231 230 231 231 231 228 228 228 228 229 230 230 231 231 232 234 235 236 236 236 238 239 241 243 245 248 250 251
329 317 303 282 264 253 246 240 237 235 234 233 232 231 231 231 230 231 230 230 229 227 228 229 229 231 231 231 232 233 234 236 236 236 237 239 240 243 245 248 250 251 253
342 333 320 303 276 260 250 244 241 237 235 234 232 231 230 230 231 230 230 230 230 229 229 228 229 231 233 233 233 235 235 236 236 236 237 240 241 243 246 249 250 252 253
352 343 335 324 300 274 258 249 246 240 236 235 233 232 229 229 230 231 230 230 231 230 231 230 230 232 232 233 234 236 237 235 235 236 239 241 242 244 247 249 251 252 254
0 352 343 333 318 295 274 256 248 244 238 236 234 232 230 229 229 230 230 230 231 231 233 232 232 233 235 234 236 238 238 238 237 238 240 242 243 245 247 249 251 253 255
5 1 355 346 333 317 300 272 253 246 241 237 234 232 231 230 229 229 230 231 231 231 233 234 234 235 236 237 237 239 239 240 241 241 241 241 243 245 246 248 250 253 256
13 11 7 1 350 336 324 305 268 250 242 238 234 231 230 230 229 229 229 230 230 231 232 233 234 236 235 237 238 239 240 243 245 245 244 243 245 246 247 248 250 253 255
16 17 15 11 7 357 343 329 298 263 251 239 234 233 231 230 230 229 228 229 230 230 230 231 234 236 237 237 237 239 240 241 243 244 243 244 245 247 248 249 250 252 255
17 18 17 16 13 10 5 354 335 289 261 245 237 235 233 233 232 231 231 232 232 232 231 232 234 236 236 238 238 239 241 241 243 244 244 245 245 245 246 248 250 252 254
16 17 18 18 17 14 12 6 356 334 292 262 245 239 235 233 232 232 232 233 233 233 233 234 234 236 238 240 240 242 242 243 244 244 245 245 244 244 246 248 250 253 254
16 17 17 19 19 20 18 13 11 5 345 304 261 247 242 238 234 232 232 232 233 234 234 236 236 239 241 243 243 244 244 245 245 246 245 244 243 244 246 247 251 252 253
16 17 16 17 18 20 20 17 18 13 5 347 309 274 257 245 236 233 232 234 235 235 236 238 240 242 243 244 244 244 245 246 246 246 245 243 243 244 245 247 250 251 253
13 14 15 14 15 18 19 18 16 13 10 357 334 309 280 256 243 240 239 239 239 237 238 239 240 243 245 245 245 244 244 244 245 244 242 241 242 243 245 246 248 251 253
9 10 11 11 12 15 16 17 15 12 8 2 349 326 305 285 264 252 246 244 242 239 239 240 242 245 247 246 245 244 243 243 244 244 242 240 241 243 244 246 248 249 250
4 5 7 8 9 10 11 13 13 11 9 6 1 351 327 305 288 270 258 254 248 243 241 242 243 244 246 245 244 245 245 245 244 244 245 243 242 242 244 246 246 247 247
360 1 1 3 5 5 5 8 7 7 6 4 1 354 343 325 304 284 273 264 259 250 244 244 245 244 246 248 247 247 247 247 246 246 246 244 242 243 243 246 246 246 248
354 357 358 359 360 0 359 359 357 357 358 359 357 353 345 334 322 303 289 275 264 257 253 251 251 251 250 250 250 249 249 247 245 245 245 246 244 244 245 245 246 247 249
Height
5818 5819 5821 5823 5825 5827 5830 5833 5835 5838 5841 5844 5846 5849 5852 5855 5857 5860 5862 5864 5866 5868 5870 5871 5872 5874 5875 5876 5877 5878 5879 5880 5881 5882 5884 5885 5886 5888 5889 5890 5892 5893 5894
5811 5812 5813 5815 5817 5819 5822 5825 5828 5831 5834 5838 5841 5844 5847 5850 5852 5855 5858 5860 5862 5865 5867 5869 5870 5872 5874 5875 5876 5877 5878 5879 5880 5881 5883 5884 5885 5887 5888 5889 5890 5892 5893
5803 5804 5805 5807 5809 5811 5814 5817 5821 5824 5828 5831 5834 5837 5841 5844 5847 5850 5853 5856 5858 5861 5863 5866 5868 5869 5871 5873 5874 5876 5877 5878 5879 5880 5882 5883 5884 5885 5886 5888 5889 5890 5891
5795 5796 5797 5798 5800 5803 5807 5810 5813 5817 5820 5824 5828 5831 5835 5838 5842 5845 5848 5851 5854 5857 5859 5862 5864 5867 5869 5870 5872 5873 5875 5876 5878 5879 5880 5882 5883 5884 5885 5886 5887 5888 5890
5789 5789 5789 5790 5792 5795 5798 5802 5806 5809 5813 5817 5821 5825 5828 5832 5835 5839 5842 5845 5848 5851 5855 5858 5861 5863 5865 5868 5869 5871 5872 5874 5876 5877 5879 5880 5881 5882 5883 5884 5885 5887 5887
5782 5782 5782 5782 5784 5787 5791 5794 5798 5802 5805 5809 5814 5818 5821 5825 5829 5832 5836 5839 5842 5846 5850 5853 5856 5859 5861 5864 5866 5868 5870 5871 5873 5875 5876 5878 5879 5880 5881 5882 5883 5884 5885
5777 5776 5775 5776 5777 5780 5784 5787 5790 5794 5798 5802 5806 5811 5814 5818 5822 5826 5830 5834 5837 5841 5844 5848 5851 5854 5857 5860 5862 5864 5866 5868 5870 5872 5874 5875 5876 5878 5879 5880 5881 5882 5883
5772 5771 5770 5770 5772 5774 5777 5780 5783 5787 5791 5794 5799 5803 5807 5812 5815 5819 5823 5827 5831 5835 5838 5842 5846 5849 5852 5855 5858 5860 5862 5864 5866 5868 5870 5872 5873 5875 5876 5877 5878 5879 5880
5768 5767 5766 5766 5767 5768 5771 5773 5776 5780 5784 5788 5792 5796 5800 5804 5808 5812 5816 5820 5824 5829 5832 5836 5840 5843 5846 5850 5852 5855 5858 5860 5862 5864 5866 5868 5870 5871 5872 5873 5874 5875 5876
5765 5763 5762 5762 5763 5764 5765 5768 5770 5773 5777 5781 5784 5789 5793 5797 5801 5805 5810 5813 5817 5822 5826 5830 5834 5837 5840 5844 5847 5849 5852 5855 5857 5859 5861 5863 5865 5867 5868 5870 5871 5872 5872
5763 5761 5760 5759 5759 5760 5761 5763 5765 5768 5771 5774 5778 5781 5785 5790 5794 5798 5802 5806 5810 5815 5819 5823 5827 5830 5834 5837 5840 5843 5846 5849 5851 5854 5856 5858 5860 5862 5864 5865 5866 5867 5868
5761 5759 5757 5757 5757 5757 5758 5759 5761 5763 5765 5768 5771 5775 5779 5783 5787 5791 5795 5799 5803 5807 5812 5816 5820 5823 5827 5830 5833 5836 5839 5842 5845 5847 5850 5852 5854 5856 5858 5860 5861 5862 5863
5759 5757 5755 5754 5754 5754 5754 5755 5756 5758 5760 5762 5765 5768 5771 5775 5779 5783 5788 5792 5796 5800 5805 5809 5812 5816 5820 5823 5826 5829 5832 5835 5838 5841 5843 5846 5848 5850 5852 5854 5855 5856 5858
5759 5756 5754 5753 5752 5751 5751 5751 5752 5753 5755 5757 5759 5762 5765 5768 5772 5776 5781 5785 5789 5793 5797 5801 5805 5809 5812 5816 5819 5822 5825 5828 5830 5833 5836 5839 5841 5843 5845 5847 5849 5850 5851
5759 5755 5753 5751 5750 5749 5748 5748 5749 5749 5751 5752 5754 5756 5759 5762 5766 5770 5774 5778 5783 5786 5791 5794 5798 5802 5805 5808 5811 5814 5817 5820 5823 5826 5829 5832 5834 5836 5838 5840 5842 5843 5844
5759 5755 5752 5750 5748 5747 5746 5746 5745 5746 5747 5748 5749 5752 5755 5757 5760 5764 5768 5771 5775 5780 5783 5787 5790 5794 5797 5801 5803 5807 5810 5813 5815 5818 5821 5824 5826 5829 5831 5833 5834 5836 5837
5760 5756 5753 5750 5748 5746 5745 5744 5743 5743 5744 5745 5746 5747 5750 5753 5756 5759 5762 5766 5769 5773 5777 5780 5783 5787 5790 5793 5796 5799 5801 5804 5807 5810 5813 5816 5818 5821 5823 5825 5826 5828 5829
5762 5758 5755 5751 5748 5746 5744 5743 5742 5741 5741 5742 5743 5744 5746 5748 5751 5754 5757 5760 5763 5767 5770 5773 5776 5779 5782 5785 5788 5791 5793 5796 5799 5802 5804 5807 5810 5812 5814 5816 5818 5819 5821
5764 5760 5756 5753 5749 5746 5744 5743 5741 5740 5740 5740 5740 5741 5742 5744 5747 5749 5752 5754 5757 5760 5764 5767 5769 5772 5775 5777 5780 5783 5786 5788 5790 5793 5795 5798 5801 5804 5806 5808 5810 5811 5813
5765 5762 5758 5754 5751 5747 5745 5743 5741 5740 5739 5739 5739 5739 5740 5741 5743 5745 5747 5749 5752 5754 5757 5760 5762 5765 5767 5770 5772 5775 5777 5780 5782 5785 5787 5789 5792 5794 5797 5799 5801 5803 5804
5767 5763 5760 5756 5752 5749 5746 5744 5742 5741 5739 5739 5738 5738 5738 5738 5739 5741 5742 5744 5746 5749 5751 5753 5756 5758 5760 5762 5765 5767 5769 5771 5774 5776 5778 5781 5784 5786 5788 5790 5792 5794 5796
5769 5765 5761 5757 5754 5751 5748 5745 5743 5742 5740 5739 5738 5737 5737 5736 5737 5737 5739 5740 5742 5743 5746 5748 5750 5752 5753 5755 5757 5759 5761 5764 5766 5768 5770 5772 5775 5777 5780 5782 5783 5785 5787
5770 5766 5763 5759 5755 5752 5749 5747 5744 5742 5741 5739 5737 5736 5736 5735 5735 5735 5735 5736 5737 5738 5740 5742 5744 5745 5747 5749 5750 5752 5753 5755 5758 5759 5761 5764 5766 5769 5771 5773 5774 5777 5778
5771 5768 5764 5760 5757 5753 5750 5748 5745 5743 5741 5739 5737 5736 5735 5734 5733 5733 5733 5733 5733 5734 5736 5737 5738 5740 5741 5741 5743 5745 5746 5747 5749 5751 5753 5756 5758 5761 5763 5765 5766 5768 5770
5772 5768 5764 5761 5757 5754 5751 5749 5746 5744 5742 5739 5738 5736 5734 5733 5732 5731 5731 5730 5730 5731 5731 5732 5733 5734 5735 5736 5737 5738 5739 5740 5742 5743 5745 5748 5750 5752 5754 5757 5758 5760 5762
5772 5768 5765 5761 5758 5755 5752 5749 5747 5744 5742 5740 5738 5736 5734 5732 5731 5730 5729 5728 5728 5727 5728 5728 5729 5729 5729 5730 5731 5731 5732 5733 5735 5737 5738 5740 5742 5744 5746 5749 5750 5752 5753